TimeEDT,TemperatureF,Dew PointF,Humidity,Sea Level PressureIn,VisibilityMPH,Wind Direction,Wind SpeedMPH,Gust SpeedMPH,PrecipitationIn,Events,Conditions,WindDirDegrees,DateUTC
12:53 AM,62.1,57.0,84,30.00,10.0,Calm,Calm,-,N/A,,Clear,0,2013-07-11 04:53:00
1:53 AM,62.1,57.0,84,30.01,10.0,Calm,Calm,-,N/A,,Partly Cloudy,0,2013-07-11 05:53:00
2:53 AM,64.0,60.1,87,30.02,10.0,Calm,Calm,-,N/A,,Overcast,0,2013-07-11 06:53:00
3:53 AM,63.0,57.9,84,30.03,10.0,Calm,Calm,-,N/A,,Clear,0,2013-07-11 07:53:00
4:53 AM,63.0,57.0,81,30.04,10.0,Calm,Calm,-,N/A,,Clear,0,2013-07-11 08:53:00
5:53 AM,62.1,57.0,84,30.04,10.0,Calm,Calm,-,N/A,,Clear,0,2013-07-11 09:53:00
6:29 AM,59.0,55.4,88,30.06,1.8,Calm,Calm,-,N/A,,Clear,0,2013-07-11 10:29:00
6:36 AM,60.8,55.4,82,30.06,1.2,Calm,Calm,-,N/A,,Clear,0,2013-07-11 10:36:00
6:40 AM,59.0,55.4,88,30.07,3.0,Calm,Calm,-,N/A,,Clear,0,2013-07-11 10:40:00
6:53 AM,61.0,57.0,87,30.06,8.0,Calm,Calm,-,N/A,,Clear,0,2013-07-11 10:53:00
7:53 AM,68.0,62.1,81,30.07,9.0,Calm,Calm,-,N/A,,Clear,0,2013-07-11 11:53:00
8:53 AM,73.0,57.0,57,30.08,10.0,Variable,3.5,-,N/A,,Clear,0,2013-07-11 12:53:00
9:53 AM,75.9,54.0,46,30.09,10.0,WNW,5.8,-,N/A,,Clear,300,2013-07-11 13:53:00
10:53 AM,78.1,55.0,45,30.09,10.0,NW,6.9,-,N/A,,Clear,310,2013-07-11 14:53:00
11:53 AM,77.0,54.0,45,30.09,10.0,WNW,10.4,17.3,N/A,,Clear,300,2013-07-11 15:53:00
12:53 PM,78.1,55.0,45,30.09,10.0,NNW,9.2,17.3,N/A,,Clear,330,2013-07-11 16:53:00
1:53 PM,78.1,57.9,50,30.09,10.0,WNW,10.4,-,N/A,,Clear,290,2013-07-11 17:53:00
2:53 PM,78.1,55.9,46,30.08,10.0,NW,11.5,18.4,N/A,,Clear,320,2013-07-11 18:53:00
3:53 PM,79.0,57.0,47,30.08,10.0,NW,9.2,-,N/A,,Clear,310,2013-07-11 19:53:00
4:53 PM,79.0,61.0,54,30.07,10.0,WNW,9.2,-,N/A,,Clear,290,2013-07-11 20:53:00
5:53 PM,78.1,54.0,43,30.07,10.0,NNW,13.8,18.4,N/A,,Clear,330,2013-07-11 21:53:00
6:53 PM,75.9,54.0,46,30.07,10.0,NW,13.8,-,N/A,,Clear,310,2013-07-11 22:53:00
7:53 PM,75.0,55.0,50,30.06,10.0,NW,8.1,-,N/A,,Clear,310,2013-07-11 23:53:00
8:53 PM,72.0,57.0,59,30.06,10.0,WNW,5.8,-,N/A,,Clear,300,2013-07-12 00:53:00
9:53 PM,69.1,59.0,70,30.06,10.0,NW,3.5,-,N/A,,Clear,320,2013-07-12 01:53:00
10:53 PM,66.9,59.0,76,30.07,10.0,Calm,Calm,-,N/A,,Clear,0,2013-07-12 02:53:00
11:53 PM,63.0,57.9,84,30.07,10.0,Calm,Calm,-,N/A,,Clear,0,2013-07-12 03:53:00